Flag for Canada Weather past 2 weeks in Rothesay, New Brunswick, Canada

32 °F


Feels Like: 25 °F
Forecast: N/A
Wind: 8 mph from Northeast

Location: Saint John

Current Time: Nov 28, 2015 at 5:18:41 PM

Latest Report: Nov 28, 2015 at 5:00 PM

Visibility: 8 mi

Pressure: 30.14 "Hg

Humidity: 93%

Dew point: 30 °F

Location of RothesayLocation

Historic Weather in Rothesay — Graph


Rothesay temperature yesterday

Maximum temperature yesterday: 52 °F (at 10:00 AM)
Minimum temperature yesterday: 48 °F (at 12:00 AM)
Average temperature yesterday: 51 °F

Past Weeks' High & Low Weather Summary

High54 °F (Nov 22, 5:00 AM)100% (Nov 21, 11:00 PM)30.94 "Hg (Nov 21, 11:00 PM)
Low14 °F (Nov 25, 5:00 AM)40% (Nov 25, 3:00 PM)29.31 "Hg (Nov 13, 4:00 PM)
Average37 °F80%30.18 "Hg
* Reported Nov 13 4:00 PM — Nov 28 4:00 PM, Rothesay, Weather by CustomWeather, © 2015

Note: Actual official high and low records may vary slightly from our data, if they occured in-between our weather recording intervals... More about our weather records


Rothesay weather history for previous 24 hours

Time TempWeatherWind HumidityBarometerVisibility
4:00 PM
Sat, Nov 28
34 °FMore clouds than sun.10 mph87%30.14 "Hg15 mi
3:00 PM36 °FMore clouds than sun.13 mph81%30.13 "Hg10 mi
2:00 PM36 °FLight snow. Mostly cloudy.13 mph87%30.14 "Hg10 mi
1:00 PM36 °FMore clouds than sun.12 mph87%30.15 "Hg15 mi
12:00 PM36 °FMore clouds than sun.12 mph87%30.16 "Hg15 mi
11:00 AM36 °FLight rain. Mostly cloudy.10 mph87%30.19 "Hg8 mi
10:00 AM34 °FMostly cloudy.12 mph93%30.19 "Hg15 mi
9:00 AM36 °FMostly cloudy.12 mph87%30.17 "Hg15 mi
8:46 AM36 °FMostly cloudy.13 mph87%30.16 "Hg10 mi
8:00 AM36 °FLight rain. Mostly cloudy.13 mph93%30.16 "Hg10 mi
7:00 AM37 °FLight rain. Fog.20 mph87%30.14 "Hg5 mi
6:00 AM39 °FLight rain. Fog.17 mph93%30.11 "Hg5 mi
5:00 AM41 °FLight rain. Fog.14 mph93%30.06 "Hg15 mi
4:00 AM46 °FLight rain. Fog.16 mph93%30.05 "Hg5 mi
3:00 AM50 °FLight rain. Fog.6 mph94%30.04 "Hg5 mi
2:00 AM50 °FLight rain. Fog.6 mph94%30.02 "Hg6 mi
1:00 AM50 °FLight rain. Fog.12 mph94%30.01 "Hg6 mi
12:00 AM52 °FLight rain. Mostly cloudy.20 mph88%30.01 "Hg12 mi
11:00 PM
Fri, Nov 27
52 °FLow clouds.17 mph88%30.04 "Hg15 mi
10:00 PM50 °FOvercast.14 mph94%30.07 "Hg15 mi
9:00 PM52 °FOvercast.22 mph88%30.08 "Hg15 mi
8:00 PM52 °FMostly cloudy.21 mph88%30.10 "Hg15 mi
7:00 PM50 °FMostly cloudy.25 mph94%30.12 "Hg15 mi
6:00 PM52 °FMostly cloudy.25 mph82%30.13 "Hg15 mi
5:00 PM52 °FMostly cloudy.25 mph82%30.15 "Hg15 mi
Weather by CustomWeather, © 2015

See weather overviewHow to use our weather pages